Location: Zagreb
(45.8000°N, 16.0000°E)
Time: 01:04:35
(UTC+02:00)

Vanguard 3 - All Passes

Search period start: 12 August 2020 00:00
Search period end: 22 August 2020 00:00
Orbit: 509 x 3262 km, 33.3° (Epoch: 11 August)

Date Brightness Start Highest point End Pass type
(mag) Time Alt. Az. Time Alt. Az. Time Alt. Az.
12 Aug - 02:43:22 10° S 02:53:36 17° SE 03:03:11 10° ESE visible
12 Aug - 04:50:43 10° SSW 05:07:22 36° SSE 05:20:22 10° E visible
12 Aug - 07:04:33 10° WSW 07:21:40 48° S 07:32:50 10° ESE daylight
12 Aug - 09:21:03 10° W 09:34:55 41° SSW 09:43:19 10° SE daylight
12 Aug - 11:39:02 10° W 11:45:55 18° SW 11:50:57 10° S daylight
13 Aug - 03:36:32 10° SSW 03:51:35 28° SSE 04:04:46 10° E visible
13 Aug - 05:48:07 10° SW 06:05:56 45° SSE 06:18:47 10° E daylight
13 Aug - 08:03:41 10° WSW 08:20:03 48° S 08:30:17 10° ESE daylight
13 Aug - 10:20:57 10° W 10:32:21 31° SSW 10:39:39 10° SSE daylight
14 Aug - 02:24:13 10° S 02:36:04 20° SE 02:47:29 10° E visible
14 Aug - 04:32:36 10° SW 04:49:57 40° SSE 05:04:03 10° E visible
14 Aug - 06:46:37 10° WSW 07:04:34 51° S 07:16:40 10° ESE daylight
14 Aug - 09:03:17 10° W 09:18:04 42° SSW 09:27:15 10° SE daylight
14 Aug - 11:21:48 10° W 11:29:09 18° SW 11:34:35 10° S daylight
15 Aug - 01:17:07 10° SE 01:21:02 11° SE 01:24:57 10° ESE visible
15 Aug - 03:18:17 10° SSW 03:34:02 32° SSE 03:48:24 10° E visible
15 Aug - 05:30:13 10° SW 05:48:36 49° SSE 06:02:28 10° E daylight
15 Aug - 07:45:50 10° WSW 08:03:02 50° S 08:14:08 10° ESE daylight
15 Aug - 10:03:20 10° W 10:15:30 30° SW 10:23:27 10° SSE daylight
16 Aug - 02:05:38 10° S 02:18:28 23° SE 02:31:17 10° E visible
16 Aug - 04:14:42 10° SW 04:32:26 43° SSE 04:47:35 10° E visible
16 Aug - 06:28:48 10° WSW 06:47:20 53° S 07:00:23 10° ESE daylight
16 Aug - 08:45:30 10° W 09:01:05 42° SSW 09:11:03 10° SE daylight
16 Aug - 11:04:32 10° W 11:12:16 18° SW 11:18:05 10° S daylight
17 Aug - 00:56:18 10° SSE 01:03:26 13° SE 01:10:50 10° ESE visible
17 Aug - 03:00:21 10° SSW 03:16:23 35° SSE 03:31:49 10° E visible
17 Aug - 05:12:27 10° WSW 05:31:09 51° S 05:46:01 10° E visible
17 Aug - 07:28:03 10° W 07:45:52 50° SSW 07:57:51 10° ESE daylight
17 Aug - 09:45:42 10° W 09:58:30 30° SW 10:07:07 10° SSE daylight
18 Aug - 01:47:29 10° S 02:00:47 25° SE 02:14:45 10° E visible
18 Aug - 03:57:01 10° SW 04:14:50 46° SSE 04:30:57 10° E visible
18 Aug - 06:11:06 10° WSW 06:29:58 54° S 06:43:59 10° ESE daylight
18 Aug - 08:27:45 10° W 08:43:57 41° SSW 08:54:44 10° SE daylight
18 Aug - 10:47:17 10° W 10:55:14 17° SW 11:01:22 10° SSW daylight
19 Aug - 00:37:10 10° SSE 00:45:48 16° SE 00:55:07 10° ESE visible
19 Aug - 02:42:41 10° SSW 02:58:42 38° SSE 03:15:02 10° E visible
19 Aug - 04:54:52 10° WSW 05:13:38 53° S 05:29:26 10° ESE visible
19 Aug - 07:10:20 10° W 07:28:35 50° SSW 07:41:28 10° SE daylight
19 Aug - 09:28:04 10° W 09:41:22 29° SW 09:50:37 10° SSE daylight
20 Aug - 01:29:41 10° S 01:43:05 28° SE 01:57:56 10° E visible
20 Aug - 03:39:33 10° SW 03:57:10 48° SSE 04:14:09 10° E visible
20 Aug - 05:53:31 10° WSW 06:12:31 55° S 06:27:27 10° ESE daylight
20 Aug - 08:10:03 10° W 08:26:41 40° SSW 08:38:16 10° SE daylight
20 Aug - 10:30:07 10° W 10:38:05 16° SW 10:44:26 10° SSW daylight
21 Aug - 00:18:48 10° SSE 00:28:10 18° SE 00:38:45 10° E visible
21 Aug - 02:25:16 10° SSW 02:41:00 40° SSE 02:58:03 10° E visible
21 Aug - 04:37:27 10° WSW 04:56:02 55° S 05:12:42 10° ESE visible
21 Aug - 06:52:43 10° W 07:11:11 50° SSW 07:24:56 10° SE daylight
21 Aug - 09:10:29 10° W 09:24:06 28° SW 09:33:58 10° SSE daylight
